Flag for U.S.A. Weather past 2 weeks in El Paso, Texas, U.S.A.

57 °F

Light rain. Cloudy.

Feels Like: 56 °F
Forecast: 56 / 71 °F
Wind: 6 mph from North

Location: El Paso International Airport

Current Time: Nov 26, 2015 at 9:35:54 AM

Latest Report: Nov 26, 2015 at 8:51 AM

Visibility: 10 mi

Pressure: 29.90 "Hg (26.10 "Hg at 1142m altitude)

Humidity: 90%

Dew point: 54 °F

Location of El PasoLocation

Historic Weather in El Paso — Graph


El Paso temperature yesterday

Maximum temperature yesterday: 74 °F (at 1:51 PM)
Minimum temperature yesterday: 44 °F (at 1:51 AM)
Average temperature yesterday: 59 °F

Past Weeks' High & Low Weather Summary

High74 °F (Nov 16, 12:51 PM)93% (Nov 15, 10:51 PM)30.30 "Hg (Nov 15, 10:51 PM)
Low31 °F (Nov 22, 6:51 AM)10% (Nov 11, 1:51 PM)29.35 "Hg (Nov 16, 1:51 PM)
Average53 °F42%29.96 "Hg
* Reported Nov 11 7:51 AM — Nov 26 7:51 AM, El Paso, Weather by CustomWeather, © 2015

Note: Actual official high and low records may vary slightly from our data, if they occured in-between our weather recording intervals... More about our weather records


El Paso weather history for previous 24 hours

Time TempWeatherWind HumidityBarometerVisibility
7:51 AM
Thu, Nov 26
57 °FLight rain. Mostly cloudy.3 mph87%29.87 "Hg10 mi
6:51 AM56 °FMostly cloudy.No wind90%29.84 "Hg10 mi
5:51 AM56 °FPassing clouds.3 mph87%29.83 "Hg10 mi
4:51 AM56 °FMostly cloudy.10 mph87%29.81 "Hg10 mi
3:51 AM57 °FMostly cloudy.7 mph83%29.81 "Hg10 mi
2:51 AM59 °FPassing clouds.3 mph69%29.80 "Hg10 mi
1:51 AM61 °FMostly cloudy.10 mph62%29.80 "Hg10 mi
12:51 AM63 °FPassing clouds.12 mph58%29.80 "Hg10 mi
11:51 PM
Wed, Nov 25
63 °FLight rain. Mostly cloudy.25 mph65%29.81 "Hg10 mi
10:51 PM60 °FLight rain. Fog.12 mph86%29.85 "Hg5 mi
9:51 PM63 °FLight rain. Overcast.8 mph70%29.84 "Hg10 mi
8:51 PM63 °FPartly cloudy.5 mph73%29.83 "Hg10 mi
7:51 PM65 °FLight rain. Overcast.14 mph66%29.84 "Hg10 mi
6:51 PM68 °FPartly cloudy.10 mph49%29.81 "Hg10 mi
5:51 PM68 °FPartly cloudy.8 mph32%29.78 "Hg10 mi
4:51 PM73 °FBroken clouds.9 mph26%29.76 "Hg10 mi
3:51 PM73 °FPartly sunny.9 mph28%29.75 "Hg10 mi
2:51 PM74 °FScattered clouds.10 mph28%29.75 "Hg10 mi
1:51 PM74 °FPassing clouds.12 mph28%29.76 "Hg10 mi
12:51 PM72 °FPassing clouds.6 mph21%29.79 "Hg10 mi
11:51 AM69 °FScattered clouds.5 mph22%29.83 "Hg10 mi
10:51 AM64 °FScattered clouds.7 mph25%29.88 "Hg10 mi
9:51 AM59 °FScattered clouds.3 mph32%29.90 "Hg10 mi
Weather by CustomWeather, © 2015

See weather overviewHow to use our weather pages